Location: Newark
(47.3000°N, 9.6500°E)
Time: 16:27:02
(UTC+00:00)

Envisat - Visible Passes

Search period start: 22 October 2019 00:00
Search period end: 01 November 2019 00:00
Orbit: 764 x 766 km, 98.1° (Epoch: 22 October)

Date Brightness Start Highest point End Pass type
(mag) Time Alt. Az. Time Alt. Az. Time Alt. Az.
22 Oct 6.2 05:01:56 10° NE 05:04:58 16° E 05:07:58 10° SE visible
22 Oct 4.3 17:57:29 10° SSW 18:02:16 42° W 18:07:06 10° NNW visible
23 Oct 3.0 17:20:19 10° SSE 17:25:25 87° WSW 17:30:32 10° NNW visible
23 Oct 6.2 19:03:14 10° WSW 19:05:12 12° W 19:07:09 10° WNW visible
24 Oct 3.3 16:43:54 10° SE 16:48:44 46° ENE 16:53:36 10° N visible
24 Oct 5.2 18:23:47 10° SSW 18:27:58 25° W 18:32:10 10° NW visible
25 Oct 6.4 04:51:27 10° ENE 04:53:33 12° E 04:55:38 10° ESE visible
25 Oct 3.9 17:46:01 10° S 17:50:57 52° W 17:55:57 10° NNW visible
26 Oct 2.9 17:09:05 10° SSE 17:14:09 77° ENE 17:19:15 10° N visible
26 Oct 5.9 18:50:50 10° WSW 18:53:46 15° W 18:56:43 10° NW visible
27 Oct 5.9 05:15:33 10° NE 05:19:23 21° E 05:23:11 10° SE visible
27 Oct 4.9 18:12:07 10° SSW 18:16:37 31° W 18:21:08 10° NNW visible
28 Oct 3.4 17:34:37 10° S 17:39:40 65° WSW 17:44:44 10° NNW visible
29 Oct 3.0 16:57:54 10° SSE 17:02:55 62° ENE 17:07:56 10° N visible
29 Oct 5.7 18:38:48 10° SW 18:42:22 19° W 18:45:57 10° NW visible
30 Oct 6.1 05:04:42 10° NE 05:07:59 17° E 05:11:15 10° SE visible
30 Oct 4.5 18:00:33 10° SSW 18:05:16 39° W 18:10:02 10° NNW visible
31 Oct 3.1 17:23:17 10° SSE 17:28:22 81° WSW 17:33:30 10° NNW visible
31 Oct 6.2 19:06:52 10° W 19:08:13 11° W 19:09:35 10° WNW visible
